Weather reports worldwide

Advertisment
Luqa, Malta (16597): temperature & dewpoint: 11.10.2018 23:00:00 - 17.10.2018 23:00:00 (CEST)Luqa, Malta (16597): wind speed: 11.10.2018 23:00:00 - 17.10.2018 23:00:00 (CEST)Luqa, Malta (16597): wind direction: 11.10.2018 23:00:00 - 17.10.2018 23:00:00 (CEST)Luqa, Malta (16597): reduced air pressure: 11.10.2018 23:00:00 - 17.10.2018 23:00:00 (CEST)Luqa, Malta (16597): visibility: 11.10.2018 23:00:00 - 17.10.2018 23:00:00 (CEST)
Date & Time tt [°C] td [°C] ff [km/h] ff [kn] dd ppp [hPa] vv [km]
17.10.2018 23:00:00 22,6 19,3 37 20 ESE 1010,9 10
17.10.2018 22:00:00 23,0 20,0 37 20 ESE - 10
17.10.2018 21:00:00 23,0 20,0 28 15 ESE - 10
17.10.2018 20:00:00 22,9 19,5 37 20 ESE 1011,0 10
17.10.2018 19:00:00 23,0 20,0 24 13 ESE - 10
17.10.2018 18:00:00 23,0 20,0 29 16 ESE - 10
17.10.2018 17:00:00 23,5 20,2 26 14 ESE 1011,0 10
17.10.2018 16:00:00 24,0 20,0 28 15 E - 10
17.10.2018 15:00:00 25,0 21,0 24 13 ESE - 10
17.10.2018 14:00:00 24,5 20,4 26 14 ESE 1012,3 10
17.10.2018 13:00:00 24,0 21,0 29 16 ESE - 10
17.10.2018 12:00:00 24,0 20,0 24 13 ESE - 10
17.10.2018 11:00:00 24,2 19,8 28 15 ESE 1013,7 10
17.10.2018 10:00:00 23,0 20,0 26 14 ESE - 10
17.10.2018 09:00:00 23,0 19,0 24 13 ESE - 10
17.10.2018 08:00:00 22,2 19,9 13 7 E 1014,3 10
17.10.2018 07:00:00 22,0 20,0 15 8 ESE - 10
17.10.2018 06:00:00 22,0 20,0 15 8 ESE - 10
17.10.2018 05:00:00 21,7 19,6 15 8 ESE 1014,1 10
17.10.2018 04:00:00 21,0 19,0 15 8 ESE - 10
17.10.2018 03:00:00 21,0 19,0 11 6 ESE - 10
17.10.2018 02:00:00 21,3 19,0 8 4 ESE 1015,9 10
17.10.2018 01:00:00 22,0 19,0 15 8 ESE - 10
17.10.2018 00:00:00 21,0 19,0 13 7 ESE - 10
16.10.2018 23:00:00 21,2 18,3 13 7 ESE 1017,0 10
16.10.2018 22:00:00 21,0 18,0 13 7 ESE - 10
16.10.2018 21:00:00 21,0 18,0 11 6 E - 10
16.10.2018 20:00:00 21,0 18,0 11 6 E - 10
16.10.2018 19:00:00 22,0 18,0 11 6 E - 10
16.10.2018 18:00:00 22,0 18,0 11 6 ESE - 10
16.10.2018 17:00:00 23,6 18,4 11 6 ESE 1016,1 10
16.10.2018 16:00:00 24,0 19,0 13 7 SSE - 10
16.10.2018 15:00:00 24,0 19,0 15 8 SE - 10
16.10.2018 14:00:00 24,2 18,9 15 8 SE 1016,7 10
16.10.2018 13:00:00 24,0 19,0 21 11 SE - 10
16.10.2018 12:00:00 24,0 19,0 16 9 SSE - 10
16.10.2018 11:00:00 23,6 18,5 18 10 SE 1017,2 10
16.10.2018 10:00:00 23,0 19,0 13 7 SE - 10
16.10.2018 09:00:00 23,0 19,0 9 5 SE - 10
16.10.2018 08:00:00 19,1 17,9 4 2 ESE 1016,2 10
16.10.2018 07:00:00 18,0 17,0 2 1 E - 10
16.10.2018 06:00:00 18,0 17,0 4 2 SE - 10
16.10.2018 05:00:00 18,8 17,0 4 2 SSW 1015,7 10
16.10.2018 04:00:00 19,0 17,0 5 3 SSE - 10
16.10.2018 03:00:00 19,0 17,0 8 4 SSE - 10
16.10.2018 02:00:00 19,9 17,1 9 5 S 1016,5 10
16.10.2018 01:00:00 20,0 17,0 8 4 S - 10
16.10.2018 00:00:00 19,0 17,0 5 3 SE - 10
15.10.2018 23:00:00 19,2 16,7 4 2 SSE 1016,6 10
15.10.2018 22:00:00 20,0 17,0 4 2 WSW - 10
15.10.2018 21:00:00 20,0 17,0 5 3 W - 10
15.10.2018 20:00:00 20,4 16,6 5 3 WSW 1015,7 10
15.10.2018 19:00:00 21,0 16,0 5 3 WSW - 10
15.10.2018 18:00:00 22,0 17,0 8 4 WSW - 10
15.10.2018 17:00:00 23,6 16,5 9 5 WSW 1014,4 10
15.10.2018 16:00:00 24,0 16,0 13 7 WSW - 10
15.10.2018 15:00:00 24,0 17,0 13 7 W - 10
15.10.2018 14:00:00 23,8 16,3 13 7 W 1014,0 10
15.10.2018 13:00:00 24,0 16,0 8 4 W - 10
15.10.2018 12:00:00 24,0 16,0 9 5 WNW - 10
15.10.2018 11:00:00 23,2 17,4 18 10 WNW 1014,4 10
15.10.2018 10:00:00 22,0 17,0 15 8 WNW - 10
15.10.2018 09:00:00 22,0 18,0 11 6 WNW - 10
15.10.2018 08:00:00 18,8 17,4 5 3 WNW 1012,8 10
15.10.2018 07:00:00 19,0 17,0 8 4 WNW - 10
15.10.2018 06:00:00 19,0 17,0 5 3 W - 10
15.10.2018 05:00:00 19,3 17,5 8 4 WNW 1012,0 10
15.10.2018 04:00:00 20,0 18,0 8 4 W - 10
15.10.2018 03:00:00 21,0 17,0 5 3 W - 10
15.10.2018 02:00:00 21,0 17,3 13 7 WSW 1011,7 10
15.10.2018 01:00:00 21,0 18,0 11 6 W - 10
15.10.2018 00:00:00 21,0 17,0 15 8 SW - 10
14.10.2018 23:00:00 21,3 17,1 21 11 WSW 1011,8 10
14.10.2018 22:00:00 21,0 18,0 15 8 WSW - 10
14.10.2018 21:00:00 21,0 18,0 16 9 SW - 10
14.10.2018 20:00:00 21,5 17,5 18 10 SW 1010,6 10
14.10.2018 19:00:00 20,0 17,0 31 17 S - 10
14.10.2018 18:00:00 22,0 18,0 31 17 S - 10
14.10.2018 17:00:00 21,6 17,7 35 19 SSE 1009,8 10
14.10.2018 16:00:00 22,0 20,0 31 17 SSE - 10
14.10.2018 15:00:00 21,0 20,0 31 17 SE - 10
14.10.2018 14:00:00 21,5 18,4 28 15 SE 1012,2 10
14.10.2018 13:00:00 20,0 18,0 18 10 SE - 10
14.10.2018 12:00:00 19,0 18,0 11 6 E - 10
14.10.2018 11:00:00 18,3 16,6 16 9 ESE 1014,3 10
14.10.2018 10:00:00 18,0 16,0 5 3 SSE - 10
14.10.2018 09:00:00 18,0 16,0 8 4 SW - 9
14.10.2018 08:00:00 20,7 17,7 15 8 ESE 1013,9 10
14.10.2018 07:00:00 20,0 17,0 18 10 ESE - 10
14.10.2018 06:00:00 20,0 18,0 21 11 SE - 10
14.10.2018 05:00:00 19,9 17,8 26 14 ESE 1014,5 10
14.10.2018 04:00:00 20,0 18,0 22 12 ESE - 10
14.10.2018 03:00:00 20,0 17,0 15 8 ESE - 10
14.10.2018 02:00:00 19,7 17,0 22 12 ESE 1016,3 10
14.10.2018 01:00:00 20,0 17,0 22 12 ESE - 10
14.10.2018 00:00:00 20,0 18,0 16 9 SE - 10
13.10.2018 23:00:00 20,0 18,0 21 11 SE - 10
13.10.2018 22:00:00 21,0 17,0 18 10 ESE - 10
13.10.2018 21:00:00 20,0 16,0 22 12 SSE - 10
13.10.2018 20:00:00 21,3 15,3 13 7 ESE 1017,5 10
13.10.2018 19:00:00 21,0 16,0 24 13 ESE - 10
13.10.2018 18:00:00 21,0 15,0 21 11 ESE - 10
13.10.2018 17:00:00 21,5 16,7 18 10 E 1017,4 10
13.10.2018 16:00:00 22,0 17,0 21 11 E - 10
13.10.2018 15:00:00 22,0 17,0 21 11 E - 10
13.10.2018 14:00:00 21,7 16,8 22 12 ESE 1018,4 10
13.10.2018 13:00:00 22,0 17,0 26 14 SE - 10
13.10.2018 12:00:00 21,0 18,0 16 9 ESE - 10
13.10.2018 11:00:00 19,6 18,3 13 7 ESE 1019,6 10
13.10.2018 10:00:00 19,0 18,0 15 8 ESE - 10
13.10.2018 09:00:00 19,0 18,0 15 8 ESE - 10
13.10.2018 08:00:00 18,6 18,4 18 10 ESE 1018,9 8
13.10.2018 07:00:00 18,0 18,0 21 11 ESE - 6
13.10.2018 06:00:00 20,0 18,0 5 3 E - 10
13.10.2018 05:00:00 20,0 18,5 11 6 SE 1018,6 10
13.10.2018 04:00:00 20,0 19,0 15 8 SE - 10
13.10.2018 03:00:00 20,0 19,0 11 6 ESE - 10
13.10.2018 02:00:00 19,2 18,0 5 3 ENE 1019,9 10
13.10.2018 01:00:00 19,0 18,0 8 4 E - 10
13.10.2018 00:00:00 19,0 19,0 9 5 E - 10
12.10.2018 23:00:00 19,4 19,1 8 4 E 1020,6 10
12.10.2018 22:00:00 19,0 19,0 11 6 E - 10
12.10.2018 21:00:00 19,0 18,0 18 10 E - 6
12.10.2018 20:00:00 20,0 18,0 18 10 ESE - 6
12.10.2018 19:00:00 22,0 20,0 2 1 NE - 10
12.10.2018 18:00:00 22,0 20,0 5 3 WSW - 10
12.10.2018 17:00:00 23,4 19,6 8 4 SSW 1019,5 8
12.10.2018 16:00:00 24,0 19,0 5 3 SSW - 10
12.10.2018 15:00:00 23,0 20,0 4 2 SE - 10
12.10.2018 14:00:00 21,3 18,1 8 4 W 1020,7 10
12.10.2018 13:00:00 24,0 19,0 5 3 - - 10
12.10.2018 12:00:00 25,0 19,0 8 4 S - 10
12.10.2018 11:00:00 24,5 19,7 13 7 SSE 1021,1 10
12.10.2018 10:00:00 24,0 19,0 9 5 SE - 10
12.10.2018 09:00:00 23,0 19,0 13 7 ESE - 10
12.10.2018 08:00:00 19,5 18,6 9 5 SE 1020,0 10
12.10.2018 07:00:00 19,0 19,0 4 2 SSE - 10
12.10.2018 06:00:00 19,0 18,0 4 2 NE - 10
12.10.2018 05:00:00 19,1 18,1 4 2 SE 1020,0 10
12.10.2018 04:00:00 19,0 18,0 2 1 SW - 10
12.10.2018 03:00:00 20,0 18,0 4 2 SSE - 10
12.10.2018 02:00:00 20,4 18,2 4 2 SE 1020,1 10
12.10.2018 01:00:00 20,0 18,0 8 4 SE - 10
12.10.2018 00:00:00 21,0 18,0 5 3 SSE - 10
11.10.2018 23:00:00 21,1 18,3 8 4 SSE 1020,1 10

tt = temperature
td = dewpoint
ff = wind speed
dd = wind direction
ppp = reduced air pressure
vv = visibility

Next stations